Temp
16 16 16 17 17 17 17 17 17 18 18 18 19 19 19 18 18 18 18 18 19 19 18 19 20 21 21 20 20 20 19 19 18 18 17 17 17 17 17 17 17 17 17
15 14 14 16 17 17 16 16 16 16 16 16 17 17 17 18 18 18 18 18 18 18 18 17 17 20 20 20 20 20 19 18 18 18 18 18 17 17 17 17 17 17 17
13 13 13 14 14 15 16 16 16 16 16 15 16 16 17 17 17 17 17 17 17 17 19 19 17 16 19 19 20 19 20 19 18 18 18 18 18 17 17 17 17 17 17
12 12 11 12 12 12 13 14 15 15 14 14 14 16 16 17 17 17 17 17 18 18 18 18 18 16 16 16 17 19 19 19 19 18 18 18 18 17 17 17 17 17 17
10 10 9 9 10 10 10 10 12 12 11 11 12 14 16 17 17 17 17 17 17 17 17 17 16 17 17 17 15 17 18 19 19 18 18 18 18 18 17 17 17 17 17
8 8 7 7 8 8 8 8 8 10 9 9 11 13 15 16 17 17 17 16 17 17 17 16 16 18 19 18 18 16 16 17 18 19 19 18 18 18 17 17 17 17 17
6 6 6 6 6 6 5 6 5 6 7 7 9 11 16 15 16 16 15 15 16 16 16 16 17 17 17 17 17 17 16 17 17 18 18 18 18 18 17 17 17 17 17
4 4 4 4 4 4 4 4 4 5 6 7 7 7 9 13 14 15 15 15 14 15 15 14 15 15 15 15 16 17 16 15 16 17 18 18 18 18 18 18 18 17 17
3 3 3 3 2 3 3 3 3 4 4 5 7 7 10 10 9 12 13 13 13 13 13 12 13 13 14 14 15 15 16 16 16 17 17 18 17 17 18 18 18 18 17
1 1 1 1 2 2 2 2 2 3 3 4 6 7 7 7 9 8 11 12 11 11 11 12 11 12 14 13 14 14 15 15 16 17 17 17 17 17 17 17 18 18 18
1 1 1 1 1 1 1 1 2 2 3 3 4 4 5 7 8 8 9 8 9 9 9 9 10 11 12 12 13 13 13 14 14 15 15 17 17 18 18 17 18 18 18
1 0 1 0 0 0 1 1 1 1 1 2 2 3 3 5 6 6 7 8 8 8 8 8 9 10 11 10 11 12 12 13 13 14 15 16 16 18 18 18 18 18 18
-0 -0 -0 -0 -0 -0 -0 0 0 0 0 0 0 1 1 2 2 3 4 5 6 6 7 8 8 9 9 10 10 10 11 12 12 13 15 15 16 16 17 18 17 18 18
-0 -1 -1 -0 -0 -0 -0 -1 -1 -1 -1 -1 -1 -1 -1 -1 -0 1 1 2 3 5 6 8 8 9 7 7 7 8 9 11 12 13 15 14 14 15 16 16 17 18 17
-0 -1 -1 -1 -1 -0 -1 -1 -1 -1 -1 -2 -2 -2 -2 -2 -1 -1 -1 0 2 3 4 6 5 6 4 4 5 7 8 9 10 12 14 15 16 16 14 15 16 17 17
-1 -1 -2 -2 -1 -1 -1 -2 -2 -2 -2 -3 -4 -4 -3 -3 -2 -2 -2 -1 -1 -0 2 2 2 2 1 1 2 4 6 7 8 10 10 13 14 14 13 13 13 14 16
-2 -2 -2 -3 -2 -2 -2 -3 -3 -3 -3 -4 -5 -5 -5 -4 -3 -3 -3 -3 -2 -1 0 0 1 -0 -1 -1 -0 1 3 4 6 5 7 8 11 11 12 12 11 12 14
-3 -3 -3 -3 -3 -3 -3 -4 -4 -5 -5 -5 -6 -6 -6 -5 -4 -4 -4 -4 -4 -3 -2 -0 -0 -1 -2 -2 -2 -1 -0 0 2 3 6 6 7 7 11 12 12 12 11
-3 -4 -4 -4 -4 -4 -4 -5 -5 -6 -6 -7 -7 -7 -7 -6 -6 -5 -5 -5 -5 -3 -3 -2 -3 -3 -4 -4 -3 -3 -2 -2 -0 1 5 5 4 5 6 7 8 11 11
-4 -5 -6 -5 -5 -4 -5 -6 -6 -7 -8 -8 -8 -7 -7 -7 -7 -6 -6 -6 -6 -4 -4 -4 -4 -4 -5 -5 -5 -4 -3 -3 -2 1 2 1 3 5 5 5 5 5 7
-6 -6 -6 -6 -6 -5 -5 -6 -7 -8 -8 -8 -8 -8 -7 -8 -7 -7 -7 -7 -6 -6 -6 -5 -5 -5 -6 -6 -6 -6 -5 -4 -1 -3 -3 -1 1 2 2 2 2 2 3
-6 -7 -7 -7 -6 -6 -6 -7 -8 -8 -9 -9 -8 -8 -8 -8 -9 -9 -9 -9 -8 -7 -8 -8 -7 -7 -7 -7 -8 -6 -6 -5 -3 -4 -5 -2 -3 -2 -1 -1 -1 -0 1
-7 -7 -7 -8 -7 -7 -7 -8 -9 -9 -9 -9 -9 -8 -8 -9 -9 -10 -10 -10 -10 -9 -9 -10 -9 -9 -9 -8 -9 -8 -7 -6 -6 -5 -5 -4 -4 -5 -2 -2 -2 -1 -1
-8 -8 -8 -8 -8 -8 -8 -9 -9 -9 -9 -8 -8 -8 -8 -9 -10 -11 -11 -11 -11 -11 -11 -11 -11 -11 -10 -10 -10 -9 -9 -8 -6 -5 -7 -6 -5 -6 -3 -2 -3 -3 -2
-8 -8 -8 -8 -8 -8 -9 -9 -9 -9 -9 -9 -9 -8 -8 -9 -9 -11 -12 -12 -12 -12 -12 -12 -12 -12 -12 -11 -11 -11 -11 -9 -9 -7 -9 -9 -7 -7 -5 -3 -3 -3 -3
-9 -9 -9 -9 -8 -8 -8 -9 -9 -9 -9 -9 -9 -9 -9 -9 -9 -10 -12 -13 -13 -13 -13 -12 -12 -12 -12 -13 -13 -12 -13 -11 -11 -9 -10 -10 -9 -9 -7 -5 -5 -5 -4
Height
799 800 799 798 797 798 797 795 795 793 794 794 792 793 793 793 794 792 793 795 796 798 804 809 808 807 808 806 805 807 810 813 815 818 821 823 825 828 830 833 835 836 838
799 799 798 798 795 795 796 795 793 791 791 791 790 789 789 789 788 786 787 790 791 792 794 799 803 803 803 803 802 800 803 807 810 813 816 819 821 823 826 829 832 833 835
800 799 797 796 793 792 792 792 792 791 790 790 789 788 786 785 783 783 785 785 783 786 791 784 790 780 790 792 792 792 795 800 805 807 811 814 816 818 820 823 828 830 832
801 799 799 797 795 793 790 789 788 789 789 788 785 783 782 782 780 779 780 781 777 778 780 779 786 781 763 765 784 788 791 795 798 802 805 808 811 813 815 817 821 825 827
803 802 800 798 796 793 791 792 788 786 786 784 782 779 778 776 776 775 775 778 778 777 773 774 776 771 774 776 773 778 790 794 795 796 799 802 805 806 809 811 815 819 822
805 803 802 800 797 795 791 793 791 786 785 782 778 774 772 772 771 771 771 771 770 770 770 771 771 769 771 776 778 775 781 791 788 791 790 793 797 799 802 805 808 812 816
806 803 802 801 798 796 796 793 792 786 783 783 778 772 766 765 764 765 767 767 768 768 768 770 771 770 774 773 772 770 775 785 782 783 786 786 788 793 794 797 800 804 808
807 805 803 801 800 799 798 795 793 790 786 787 786 782 776 766 763 762 764 765 763 764 765 765 766 769 768 765 764 769 769 767 774 778 780 780 782 785 786 789 791 795 799
808 806 805 803 802 800 799 797 796 793 792 790 787 787 781 778 774 762 760 760 761 763 763 764 765 763 761 759 762 761 762 764 767 768 771 772 772 775 779 782 783 786 791
809 806 806 805 803 801 799 798 797 795 794 791 787 786 785 782 778 771 762 758 757 758 760 759 759 758 757 759 756 756 757 758 758 761 763 763 762 765 769 775 775 777 781
810 807 805 805 804 802 800 799 797 796 794 792 790 788 784 780 778 777 765 761 759 759 759 758 757 755 754 753 754 755 751 750 751 752 752 751 753 756 758 764 767 768 772
812 809 807 807 805 802 800 800 797 796 794 793 790 789 786 783 779 777 771 765 763 758 759 758 757 756 752 750 748 747 746 746 744 741 738 739 743 746 747 752 757 760 762
813 811 810 807 805 802 802 801 798 797 795 793 791 788 785 783 781 778 774 769 765 762 760 756 756 754 752 748 745 742 739 738 735 731 730 728 732 737 741 742 747 752 752
816 814 811 809 806 804 804 802 800 798 796 794 792 788 786 784 781 778 775 773 766 761 758 757 756 752 748 746 743 738 736 734 732 727 725 721 724 727 729 731 734 738 741
817 814 813 811 809 807 805 804 802 800 798 797 794 791 787 785 782 778 776 774 770 762 757 754 753 751 748 745 741 737 733 728 727 723 719 715 714 715 717 720 721 721 727
819 816 814 813 813 809 806 806 804 803 800 799 797 795 790 785 783 780 777 775 772 769 765 761 759 754 749 743 738 733 730 727 724 720 715 712 713 712 709 709 712 709 716
820 817 816 816 815 811 809 809 807 804 802 803 799 798 793 787 783 781 778 775 772 769 766 761 758 754 750 744 737 733 727 726 723 721 714 711 709 710 707 704 704 704 691
822 820 818 818 817 813 811 812 809 808 804 806 804 801 795 790 786 783 780 777 773 770 767 763 760 757 753 748 741 735 729 728 723 721 715 713 710 709 701 698 697 695 697
824 821 819 819 818 816 814 814 812 810 808 807 807 803 799 793 788 786 784 779 776 775 772 768 765 761 755 748 741 736 733 729 723 721 714 711 708 707 703 704 700 695 697
826 823 822 821 819 818 817 816 814 813 811 810 808 806 802 794 792 792 788 786 783 778 773 770 766 763 758 751 747 741 733 730 727 723 718 714 712 708 703 699 702 701 695
827 825 824 823 822 821 820 818 817 815 815 813 810 807 805 800 799 799 796 791 785 780 777 772 770 766 760 754 750 748 742 736 732 728 724 720 714 708 703 702 704 700 697
828 827 826 826 825 824 823 822 821 820 818 816 812 811 807 804 802 801 797 792 789 784 781 780 778 774 770 766 761 756 748 739 735 730 728 723 719 714 711 711 707 704 702
831 830 829 828 827 827 826 824 823 821 820 818 815 813 811 808 804 801 798 795 791 788 787 785 784 780 777 773 769 761 755 751 746 742 733 727 725 720 716 714 708 705 704
833 832 832 831 830 829 828 826 825 824 822 819 817 816 815 812 808 805 801 798 794 790 789 788 787 785 781 778 772 768 762 757 748 746 740 735 730 723 716 716 711 712 706
836 835 835 834 831 831 830 829 828 826 825 823 822 820 818 814 814 810 805 801 798 794 793 791 788 786 782 779 774 767 760 756 753 751 749 745 739 728 718 716 716 713 709
837 837 837 836 834 833 833 832 831 829 827 826 825 822 821 820 817 814 808 805 800 798 794 789 787 784 782 779 775 770 769 765 763 755 756 751 745 739 724 714 712 708 705
Wind_Speed
7 8 7 6 7 9 12 13 13 13 14 15 19 21 21 25 28 26 26 27 28 24 24 32 39 36 33 37 34 33 33 32 32 32 32 31 30 28 28 28 27 26 25
9 7 8 7 8 11 14 13 13 13 13 13 12 11 14 16 21 24 28 28 27 24 25 27 35 42 35 35 37 35 34 34 34 33 34 33 33 31 31 31 30 28 27
12 10 10 11 10 6 9 12 14 14 14 14 12 10 10 12 13 17 22 21 21 25 26 35 41 46 44 38 38 39 36 35 35 36 36 35 35 34 34 34 32 31 30
14 12 12 13 13 13 11 11 14 17 18 19 18 15 14 13 14 15 16 21 25 31 47 46 31 38 13 13 33 34 36 35 35 37 38 37 36 37 37 36 36 34 33
17 14 14 14 13 13 15 16 15 15 19 19 20 20 18 18 17 15 15 14 20 25 32 26 27 25 27 26 19 28 34 32 34 37 39 40 40 39 39 39 39 38 36
19 17 16 16 15 14 16 16 16 13 13 20 22 19 17 17 17 15 13 12 13 15 17 32 31 21 17 16 15 10 28 34 35 38 39 40 43 42 40 40 40 41 40
19 19 19 18 18 17 17 17 19 19 14 20 13 14 12 8 7 8 2 3 6 9 12 18 26 30 37 36 26 15 28 31 37 40 40 38 40 44 43 42 41 43 44
18 19 18 18 18 17 17 18 19 18 10 15 8 8 4 5 4 3 1 5 6 6 6 11 16 21 24 26 29 26 42 43 41 42 40 39 40 43 43 44 43 44 46
19 19 17 15 15 15 16 16 16 15 12 12 11 4 3 3 10 7 6 3 12 10 8 8 11 14 16 20 22 24 34 37 45 43 43 45 40 40 42 46 44 44 45
20 20 20 18 16 14 15 14 13 13 12 12 11 7 7 5 3 5 7 14 11 19 16 20 18 18 15 16 22 25 27 32 43 43 46 43 38 38 41 46 44 43 44
20 20 18 18 18 17 15 13 12 12 10 11 10 9 11 11 14 7 9 5 17 13 21 20 24 23 21 19 16 17 26 32 38 42 44 47 47 46 41 43 45 43 44
18 18 17 17 16 16 15 13 11 11 11 9 9 9 8 5 6 4 3 12 14 13 21 21 17 16 17 16 14 15 17 18 21 20 35 39 41 47 43 40 43 45 42
18 17 17 16 15 16 15 14 12 12 12 11 10 10 8 7 9 10 12 10 6 14 14 12 16 16 10 17 26 23 18 20 22 24 27 33 38 41 48 47 46 45 39
16 16 16 14 15 15 16 15 16 14 15 15 14 13 11 11 11 10 10 12 5 4 8 9 14 13 24 30 23 22 22 20 22 20 23 14 24 38 42 54 52 49 47
10 13 17 14 14 15 15 17 17 17 16 19 16 16 15 13 14 11 11 10 7 3 3 4 7 21 25 21 20 23 24 19 17 17 15 16 16 25 33 46 50 55 54
12 14 16 13 15 17 17 16 17 18 18 20 18 18 18 19 16 16 15 12 9 5 3 4 13 19 23 21 21 20 18 16 16 16 15 9 16 19 20 26 41 55 60
11 15 16 12 15 18 19 17 15 16 20 19 20 19 21 23 21 19 19 17 15 9 5 6 15 20 20 27 25 21 17 17 18 20 14 15 9 10 10 12 17 27 37
13 13 15 13 15 17 18 16 16 15 18 18 20 20 24 22 25 22 22 21 20 17 11 10 12 19 22 26 23 24 22 19 16 18 19 19 18 20 11 11 16 15 17
13 13 14 15 17 18 18 16 19 15 16 18 19 22 23 24 26 23 23 23 24 15 17 14 13 18 23 29 28 26 25 28 15 20 26 22 23 24 22 20 15 7 7
13 16 16 17 19 18 17 16 19 21 18 17 17 20 23 26 26 23 21 22 19 17 18 16 18 19 25 28 25 26 29 32 17 26 31 28 29 24 26 23 25 20 15
14 16 17 18 18 18 15 16 19 22 19 18 19 20 25 22 19 19 16 22 23 21 20 19 20 20 27 30 31 27 25 28 12 30 36 26 35 33 30 24 33 31 27
15 18 20 18 18 16 16 16 15 18 18 20 21 20 22 26 19 19 20 22 25 25 24 21 19 20 23 27 27 25 25 27 6 26 34 19 37 36 31 22 36 30 32
19 20 21 21 19 17 17 16 17 21 24 25 27 27 21 25 26 21 22 23 23 25 24 24 21 21 20 27 26 23 26 22 16 20 35 9 32 31 29 18 31 33 34
21 22 23 22 21 19 16 18 20 23 23 24 26 27 26 26 27 22 21 26 29 27 26 24 24 23 22 25 26 20 20 20 15 14 44 8 28 35 28 16 27 32 29
20 21 21 21 23 20 18 17 21 23 24 25 23 23 26 26 24 25 28 27 29 30 25 22 21 22 24 25 28 28 30 24 13 8 39 21 23 32 20 15 30 34 26
19 17 18 20 20 20 16 17 19 22 23 23 24 25 23 23 23 25 31 27 27 30 31 32 32 32 32 33 30 34 29 22 20 8 31 23 25 28 12 11 38 37 33
Wind_Direction
27 28 23 13 5 350 352 348 336 326 319 308 295 282 264 268 271 272 274 274 275 270 281 266 246 240 238 226 220 219 219 215 216 216 217 215 214 214 212 211 210 208 208
21 26 34 30 341 342 340 343 342 340 330 326 318 308 282 268 269 269 268 267 273 269 296 286 260 247 242 239 227 221 220 220 219 220 221 218 218 217 215 215 215 214 213
27 25 20 21 17 351 324 329 332 328 322 322 321 314 308 287 280 269 263 261 285 269 275 247 261 290 231 232 235 226 221 222 221 222 225 224 221 220 219 217 218 218 217
22 15 9 6 358 351 350 336 328 323 319 319 313 304 297 290 285 277 269 261 252 240 229 235 245 252 243 215 251 236 229 225 225 225 226 229 226 224 223 220 219 221 220
29 27 19 8 359 1 354 343 331 328 328 323 316 304 287 280 278 275 279 259 248 241 238 236 252 255 258 256 287 238 241 239 236 231 230 231 231 228 227 225 223 223 224
35 34 29 21 18 15 6 354 347 343 344 337 323 308 292 276 265 264 272 282 259 262 252 237 250 245 255 264 311 236 224 245 240 243 232 232 236 232 230 229 228 227 227
34 32 33 25 26 27 12 12 355 355 2 352 348 327 312 311 259 253 238 290 284 278 265 252 255 259 258 274 273 218 213 258 249 245 242 235 237 240 235 231 230 231 230
23 23 20 21 23 18 13 13 8 359 358 3 345 307 323 326 321 209 358 63 62 5 315 300 289 284 278 278 272 242 234 258 247 246 244 242 242 240 242 237 233 233 233
13 14 18 22 16 12 8 2 360 2 345 341 347 293 325 314 338 316 309 325 348 357 356 358 344 340 327 309 292 273 247 247 245 251 252 245 241 243 245 244 237 236 237
21 23 25 23 15 14 10 3 353 350 348 334 342 324 318 294 309 310 309 311 341 341 335 333 337 330 331 332 312 294 280 268 254 256 254 247 240 244 243 245 241 239 238
26 27 26 24 25 20 15 8 2 358 352 346 345 335 323 310 271 262 289 307 332 332 334 332 321 316 319 327 336 332 296 278 268 263 263 249 249 239 244 241 243 242 243
27 31 30 24 26 23 18 14 12 3 354 344 334 324 325 317 320 307 298 309 307 319 324 325 331 341 341 343 339 340 333 315 311 308 270 263 260 242 239 239 246 244 245
41 36 31 29 33 34 26 23 24 21 13 16 4 345 327 327 322 303 295 301 299 309 309 318 333 337 351 330 330 325 326 339 329 301 311 258 253 251 244 246 246 248 247
43 39 34 41 41 42 44 36 41 37 38 29 16 6 355 346 338 324 312 317 306 285 296 315 326 317 327 330 335 323 315 321 331 317 317 276 260 255 254 249 243 243 244
41 42 36 51 51 53 51 43 44 42 44 30 22 18 18 5 2 349 335 322 311 320 335 355 341 325 343 343 326 317 319 315 329 328 292 315 301 271 262 250 246 237 236
72 43 40 56 58 58 56 50 45 45 48 34 24 22 22 20 15 18 12 4 1 337 283 344 322 337 349 341 337 330 324 328 334 341 350 311 288 298 271 263 258 247 238
55 45 42 58 59 60 58 49 48 49 49 31 31 25 20 26 17 18 19 15 11 5 313 315 341 357 357 353 354 353 350 344 339 7 1 7 350 343 311 299 284 260 238
58 49 49 66 60 61 62 53 51 49 57 43 33 25 21 24 26 20 18 15 13 15 355 340 358 0 0 356 355 357 1 351 4 349 2 14 19 23 359 327 320 319 288
57 55 61 67 62 60 67 59 49 61 55 51 36 30 25 28 25 21 18 18 15 14 19 22 10 9 5 5 358 0 1 0 11 2 15 16 20 16 30 26 26 358 334
61 63 71 73 62 59 68 62 59 61 57 49 42 36 34 36 29 21 23 21 15 15 21 24 20 15 10 6 7 1 358 0 9 6 22 19 10 19 18 26 27 22 6
72 74 75 76 64 63 64 65 61 59 54 50 46 41 38 39 40 32 30 30 28 26 26 25 21 16 13 8 8 351 355 351 3 4 2 19 12 16 16 29 24 19 21
87 81 74 70 72 67 70 71 66 63 58 52 46 43 41 34 41 39 39 40 38 36 35 30 26 20 13 9 1 360 357 0 359 359 358 5 6 8 16 32 22 19 17
93 86 84 75 74 73 72 70 69 74 67 62 54 48 44 37 34 38 42 47 46 44 43 38 32 24 13 10 3 4 2 357 340 356 3 338 358 354 8 20 15 12 12
95 89 84 83 78 70 74 73 75 74 70 64 58 50 50 45 36 35 39 46 46 46 35 36 38 31 29 19 17 13 4 355 15 22 14 343 350 343 349 17 6 7 3
96 92 87 83 81 74 72 76 78 74 71 65 60 54 48 49 39 38 43 39 40 41 41 37 40 37 35 30 25 24 18 17 359 6 13 348 350 340 335 350 347 2 1
103 96 92 88 82 80 73 70 74 72 70 67 63 57 48 47 43 39 42 37 33 30 30 33 35 37 37 35 30 35 23 18 7 349 359 352 354 357 330 333 341 350 346